Location: Guilderland
(42.7045°N, 73.9115°W)
Time: 15:37:20
(UTC+00:00)

Cosmos 1980 - Pass Details

Date: 24 January 2020
Orbit: 838 x 849 km, 71.0° (Epoch: 23 February)

Event Time Altitude Azimuth Distance (km) Brightness Sun altitude
Rises 22:46:12 0° 333° (NNW) 3,420 7.0 -9.1°
Reaches altitude 10° 22:48:39 10° 331° (NNW) 2,481 6.3 -9.5°
Maximum altitude 22:54:19 70° 249° (WSW) 904 4.1 -10.5°
Drops below altitude 10° 22:59:57 10° 167° (SSE) 2,464 6.2 -11.5°
Sets 23:02:23 0° 165° (SSE) 3,395 6.9 -11.9°
